Jacksonville, FL (32216)

11:16 PM EDT on July 27, 2016 (GMT -0400)
Southside | | Change Station

Elev 33 ft 30.28 °N, 81.58 °W | Updated 9 seconds ago

Clear
Clear
81.7 °F
Feels Like 80 °F
N
0.0
Wind Variable Wind from SSW
Gusts 0.0 mph

Today
High -- | Low -- °F
--% Chance of Precip.
Yesterday
High -- | Low -- °F
Precip. -- in
Pressure 30.05 in
Visibility 10.0 miles
Clouds Clear
Heat Index 80 °F
Dew Point 49 °F
Humidity 32%
Rainfall 0.00 in
Snow Depth Not available.
6:42 AM 8:23 PM
Last Quarter, 37% visible
METAR KCRG 280253Z 18007KT 10SM CLR 29/24 A3005 RMK AO2 SLP175 T02940244 53012
Pressure 30.05 in
Visibility 10.0 miles
Clouds Clear
Heat Index 80 °F
Dew Point 49 °F
Humidity 32%
Rainfall 0.00 in
Snow Depth Not available.
6:42 AM 8:23 PM
Last Quarter, 37% visible
METAR KCRG 280253Z 18007KT 10SM CLR 29/24 A3005 RMK AO2 SLP175 T02940244 53012

10-Day Weather Forecast

Almanac

Astronomy

Jul. 27, 2016 Rise Set
Actual Time
Civil Twilight
Nautical Twilight
Astronomical Twilight
Moon
Length of Visible Light
Length of Day
Tomorrow will be .
, % of the Moon is Illuminated

Today's Extremes

State Highs State Lows

Community

WunderPhotos

Upload Photos

1,928,037 photos uploaded!

WunderBlog® & News

Nearby

Air Quality

  Air Quality AQ Index Pollutant
Not available.

Snow Depth

Station Depth Elevation

Earthquake Activity

City Distance Mag. Time & Date
Minimum magnitude displayed is 2.5.

Coastal Water Temperatures

Place Temperature

Stations

Nearby Weather Stations

Station Location Temp. Windchill Dew Point Humidity Wind Precip. Elev Updated Type
                   

Watches & Warnings

There are currently no watches in effect.